Home   Weather   Hoshiarpur   Past weeks

Flag for India Past Weather in Hoshiarpur, Punjab, India — Yesterday and Last 2 Weeks

Now
59 °F

Passing clouds.


Feels Like: 59 °F
Forecast: 47 / 74 °F
Wind: 1 mph from North

Location: Amritsar Airport

Current Time: Jan 22, 2017 at 8:14:14 pm

Latest Report: Jan 22, 2017 at 7:30 pm


Visibility: 2 mi

Pressure: 30.15 "Hg

Humidity: 63%

Dew Point: 46 °F

Location of HoshiarpurLocation

Past Weather in Hoshiarpur — Graph

°F

Hoshiarpur Temperature Yesterday

Maximum temperature yesterday: 63 °F (at 2:30 pm)
Minimum temperature yesterday: 46 °F (at 12:00 am)
Average temperature yesterday: 53 °F

High & Low Weather Summary for the Past Weeks

 TemperatureHumidityPressure
High70 °F (Jan 22, 2:00 pm)100% (Jan 7, 6:30 pm)30.36 "Hg (Jan 7, 6:30 pm)
Low34 °F (Jan 11, 7:00 am)29% (Jan 22, 2:00 pm)29.89 "Hg (Jan 7, 6:30 pm)
Average50 °F88%30.10 "Hg
* Reported Jan 7 6:30 pm — Jan 22 7:00 pm, Hoshiarpur, Weather by CustomWeather, © 2017

Note: Actual official high and low records may vary slightly from our data, if they occured in-between our weather recording intervals... More about our weather records

Advertising

Hoshiarpur Weather History for the Previous 24 Hours

Scroll right to see more
 ConditionsComfort  
Time TempWeatherWind HumidityBarometerVisibility
7:00 pm
Sun, Jan 22
57 °FPassing clouds.No wind72%30.15 "Hg2 mi
6:30 pm59 °FPassing clouds.No wind63%30.15 "Hg2 mi
6:00 pm61 °FScattered clouds.No wind63%30.15 "Hg2 mi
5:30 pm64 °FScattered clouds.2 mph56%30.15 "Hg2 mi
5:00 pm66 °FScattered clouds.3 mph49%30.15 "Hg2 mi
4:30 pm68 °FScattered clouds.6 mph35%30.15 "Hg2 mi
4:00 pm68 °FScattered clouds.7 mph40%30.15 "Hg2 mi
3:30 pm68 °FScattered clouds.5 mph35%30.15 "Hg2 mi
3:00 pm70 °FScattered clouds.5 mph35%30.18 "Hg2 mi
2:30 pm68 °FScattered clouds.1 mph38%30.18 "Hg2 mi
2:00 pm70 °FScattered clouds.2 mph29%30.18 "Hg2 mi
1:30 pm68 °FScattered clouds.2 mph46%30.21 "Hg2 mi
1:00 pm68 °FPartly sunny.2 mph64%30.21 "Hg1 mi
12:30 pm63 °FFog.3 mph94%30.24 "Hg1 mi
12:00 pm63 °FFog.2 mph100%30.24 "Hg1 mi
11:30 am63 °FFog.No wind100%30.27 "Hg1 mi
11:00 am55 °FFog.2 mph100%30.27 "Hg1 mi
10:30 am50 °FFog.2 mph100%30.27 "Hg0 mi
10:00 am48 °FFog.5 mph100%30.27 "Hg0 mi
9:30 am48 °FFog.5 mph100%30.27 "Hg0 mi
9:00 am48 °FFog.No wind100%30.24 "Hg0 mi
7:30 am48 °FFog.No wind100%30.21 "Hg0 mi
7:00 am48 °FFog.No wind100%30.21 "Hg1 mi
6:30 am48 °FFog.No wind100%30.18 "Hg1 mi
6:00 am48 °FFog.No wind100%30.18 "Hg1 mi
5:30 am48 °FFog.1 mph100%30.18 "Hg1 mi
5:00 am48 °FFog.2 mph100%30.18 "Hg1 mi
4:00 am50 °FFog.No wind100%30.18 "Hg1 mi
3:00 am50 °FFog.No wind100%30.18 "Hg1 mi
2:30 am50 °FFog.No wind100%30.18 "Hg1 mi
1:30 am50 °FFog.No wind100%30.18 "Hg1 mi
1:00 am50 °FFog.No wind100%30.18 "Hg1 mi
12:30 am50 °FFog.No wind100%30.18 "Hg1 mi
12:00 am50 °FFog.No wind100%30.18 "Hg1 mi
11:30 pm
Sat, Jan 21
52 °FFog.No wind100%30.18 "Hg1 mi
11:00 pm52 °FFog.No wind100%30.18 "Hg1 mi
10:30 pm52 °FFog.5 mph100%30.18 "Hg1 mi
10:00 pm54 °FFog.1 mph100%30.15 "Hg1 mi
9:30 pm50 °FFog.No wind100%30.15 "Hg1 mi
9:00 pm54 °FFog.No wind100%30.15 "Hg1 mi
8:30 pm54 °FFog.No wind100%30.15 "Hg1 mi
8:00 pm54 °FFog.No wind100%30.12 "Hg2 mi
Weather by CustomWeather, © 2017

See weather overviewHow to use our weather pages